�������ċp�F�����K�X���j�^�v���󋵏��
Date,Time,�ċp�F�����K�X���j�^(cps),����,����(m/s)
2022/09/19,00:00,1.4,��,9.3
2022/09/19,00:10,1.5,��,9.4
2022/09/19,00:20,1.4,��,8.3
2022/09/19,00:30,1.4,��,7.2
2022/09/19,00:40,1.4,��,6.7
2022/09/19,00:50,1.4,��,8.7
2022/09/19,01:00,1.4,��,8.1
2022/09/19,01:10,1.5,��,9.4
2022/09/19,01:20,1.5,��,8.0
2022/09/19,01:30,1.4,��쓌,9.3
2022/09/19,01:40,1.4,��,8.6
2022/09/19,01:50,1.4,��,7.9
2022/09/19,02:00,1.4,��,8.0
2022/09/19,02:10,1.4,��,9.8
2022/09/19,02:20,1.3,��,8.6
2022/09/19,02:30,1.5,��,7.7
2022/09/19,02:40,1.4,��,9.5
2022/09/19,02:50,1.4,��,9.9
2022/09/19,03:00,1.5,��,10.6
2022/09/19,03:10,1.5,��,11.0
2022/09/19,03:20,1.4,��,8.8
2022/09/19,03:30,1.4,��,10.3
2022/09/19,03:40,1.4,��,10.8
2022/09/19,03:50,1.4,��,12.7
2022/09/19,04:00,1.5,��,11.1
2022/09/19,04:10,1.4,��,10.2
2022/09/19,04:20,1.4,��,11.4
2022/09/19,04:30,1.3,��,10.7
2022/09/19,04:40,1.4,��,9.4
2022/09/19,04:50,1.5,��,8.2
2022/09/19,05:00,1.5,��,11.1
2022/09/19,05:10,1.5,��,8.5
2022/09/19,05:20,1.5,��,7.0
2022/09/19,05:30,1.5,��,8.1
2022/09/19,05:40,1.4,��,9.4
2022/09/19,05:50,1.4,��,7.7
2022/09/19,06:00,1.4,��,7.3
2022/09/19,06:10,1.5,��,8.3
2022/09/19,06:20,1.5,��,10.7
2022/09/19,06:30,1.5,��,10.2
2022/09/19,06:40,1.4,��,8.4
2022/09/19,06:50,1.4,��,10.2
2022/09/19,07:00,1.5,��,11.3
2022/09/19,07:10,1.4,��쓌,12.0
2022/09/19,07:20,1.4,��,11.7
2022/09/19,07:30,1.4,��,9.2
2022/09/19,07:40,1.5,��,9.7
2022/09/19,07:50,1.4,��,9.8
2022/09/19,08:00,1.5,��,8.6
2022/09/19,08:10,1.4,��,9.5
2022/09/19,08:20,1.4,��,9.4
2022/09/19,08:30,1.5,��,8.3
2022/09/19,08:40,1.5,��,9.6
2022/09/19,08:50,1.3,��,8.9
2022/09/19,09:00,1.4,��,9.5
2022/09/19,09:10,1.5,��,9.7
2022/09/19,09:20,1.4,��,8.5
2022/09/19,09:30,1.4,��,8.4
2022/09/19,09:40,1.5,��,8.9
2022/09/19,09:50,1.5,��,10.7
2022/09/19,10:00,1.5,��,9.2
2022/09/19,10:10,1.5,��,9.9
2022/09/19,10:20,1.4,��,10.3
2022/09/19,10:30,1.4,��,9.1
2022/09/19,10:40,1.5,��,9.8
2022/09/19,10:50,1.5,��쓌,10.2
2022/09/19,11:00,1.5,��,12.1
2022/09/19,11:10,1.4,��,10.3
2022/09/19,11:20,1.5,��쓌,10.8
2022/09/19,11:30,1.4,��쓌,10.0
2022/09/19,11:40,1.4,��쓌,11.9
2022/09/19,11:50,1.5,��쓌,11.7
2022/09/19,12:00,1.4,��쓌,9.7
2022/09/19,12:10,1.4,��쓌,12.5
2022/09/19,12:20,1.5,��쓌,13.8
2022/09/19,12:30,1.4,��,12.1
2022/09/19,12:40,1.5,��쓌,10.6
2022/09/19,12:50,1.5,��쓌,13.0
2022/09/19,13:00,1.4,��,12.2
2022/09/19,13:10,1.6,��,12.4
2022/09/19,13:20,1.4,��,11.1
2022/09/19,13:30,1.5,��쓌,11.0
2022/09/19,13:40,1.6,��,11.4
2022/09/19,13:50,1.5,��쓌,10.6
2022/09/19,14:00,1.4,��,13.5
2022/09/19,14:10,1.4,��쓌,14.6
2022/09/19,14:20,1.4,��,12.2
2022/09/19,14:30,1.5,��,15.2
2022/09/19,14:40,1.4,��,12.5
2022/09/19,14:50,1.4,��,14.4
2022/09/19,15:00,1.5,��,10.5
2022/09/19,15:10,1.6,��,9.7
2022/09/19,15:20,1.5,��,13.0
2022/09/19,15:30,1.5,��,15.2
2022/09/19,15:40,1.4,��,12.2
2022/09/19,15:50,1.5,��,11.8
2022/09/19,16:00,1.5,��,10.3
2022/09/19,16:10,1.4,��,12.2
2022/09/19,16:20,1.5,��,11.4
2022/09/19,16:30,1.4,��,11.3
2022/09/19,16:40,1.4,��쐼,10.5
2022/09/19,16:50,1.5,��,11.7
2022/09/19,17:00,1.4,��,12.1
2022/09/19,17:10,1.4,��,12.4
2022/09/19,17:20,1.4,��,10.5
2022/09/19,17:30,1.5,��,8.6
2022/09/19,17:40,1.5,��쓌,12.1
2022/09/19,17:50,1.4,��,14.2
2022/09/19,18:00,1.5,��,13.9
2022/09/19,18:10,1.4,��,13.9
2022/09/19,18:20,1.4,��,13.1
2022/09/19,18:30,1.4,��,12.5
2022/09/19,18:40,1.5,��,14.4
2022/09/19,18:50,1.5,��,11.0
2022/09/19,19:00,1.4,��,13.5
2022/09/19,19:10,1.5,��,11.0
2022/09/19,19:20,1.5,��,9.8
2022/09/19,19:30,1.5,��,11.6
2022/09/19,19:40,1.4,��,10.8
2022/09/19,19:50,1.4,��,11.6
2022/09/19,20:00,1.5,��,12.2
2022/09/19,20:10,1.5,��,12.1
2022/09/19,20:20,1.3,��,12.4
2022/09/19,20:30,1.4,��,13.0
2022/09/19,20:40,1.5,��,12.5
2022/09/19,20:50,1.4,��,14.6
2022/09/19,21:00,1.5,��,12.5
2022/09/19,21:10,1.4,��,16.1
2022/09/19,21:20,1.4,��,14.6
2022/09/19,21:30,1.5,��,13.1
2022/09/19,21:40,1.4,��,14.9
2022/09/19,21:50,1.4,��,12.5
2022/09/19,22:00,1.5,��,11.3
2022/09/19,22:10,1.5,��,12.8
2022/09/19,22:20,1.4,��,11.7
2022/09/19,22:30,1.4,��,12.8
2022/09/19,22:40,1.5,��,13.6
2022/09/19,22:50,1.4,��,11.4
2022/09/19,23:00,1.5,��,11.3
2022/09/19,23:10,1.4,��,12.2
2022/09/19,23:20,1.5,��,9.8
2022/09/19,23:30,1.4,��,13.8
2022/09/19,23:40,1.4,��,10.9
2022/09/19,23:50,1.5,��,10.5
